START_TIME,STEP,MOV.,M29,t_acc.,H22,t_acc.,H26,t_acc.,H30,t_acc.
1980-11-13 12:00:20.450 ,4,0,0.,24.0,0.,24.0,0.,24.0,0.,24.0
1980-11-13 12:00:44.450 ,5,1,0.,24.0,0.,24.0,0.,24.0,0.,24.0
1980-11-13 12:01:08.450 ,5,0,0.,24.0,0.,24.0,0.,24.0,0.,24.0
1980-11-13 12:01:32.450 ,6,1,0.,24.0,0.,24.0,0.,24.0,0.,24.0
1980-11-13 12:01:56.450 ,6,0,0.,24.0,0.,24.0,0.,24.0,0.,24.0
1980-11-13 12:02:20.450 ,7,1,0.,24.0,0.,24.0,0.,24.0,0.,24.0
1980-11-13 12:02:44.450 ,7,0,0.,24.0,0.,24.0,0.,24.0,0.,24.0
1980-11-13 12:03:08.450 ,7,1,0.,24.0,0.,24.0,0.,24.0,0.,24.0
1980-11-13 12:03:32.450 ,7,0,0.,24.0,0.,24.0,0.,24.0,0.,24.0
1980-11-13 12:03:56.450 ,6,1,0.,24.0,0.,24.0,0.,24.0,0.,24.0
1980-11-13 12:04:20.450 ,6,0,0.,24.0,0.,24.0,0.,24.0,0.,24.0
1980-11-13 12:04:44.450 ,5,1,0.,24.0,0.,24.0,0.,24.0,0.,24.0
1980-11-13 12:05:08.450 ,5,0,0.,24.0,0.,24.0,0.,24.0,0.,24.0
1980-11-13 12:05:32.450 ,4,1,0.,24.0,0.,24.0,0.,24.0,0.,24.0
1980-11-13 12:05:56.450 ,4,0,0.,24.0,0.,24.0,0.,24.0,0.,24.0
1980-11-13 12:06:20.450 ,3,1,0.,24.0,0.,24.0,0.,24.0,0.,24.0
1980-11-13 12:06:44.450 ,3,0,0.,24.0,0.,24.0,0.,24.0,0.,24.0
1980-11-13 12:07:08.450 ,2,1,0.,24.0,0.,24.0,0.,24.0,0.,24.0
1980-11-13 12:07:32.450 ,2,0,0.,24.0,0.,24.0,0.,24.0,0.,24.0
1980-11-13 12:07:56.450 ,1,1,0.,24.0,0.,24.0,0.,24.0,0.,24.0
1980-11-13 12:08:20.450 ,1,0,0.,24.0,0.,24.0,0.,24.0,0.,24.0
1980-11-13 12:08:44.450 ,0,1,0.,24.0,0.,24.0,0.,24.0,0.,24.0
1980-11-13 12:09:08.450 ,0,0,0.,24.0,0.,24.0,0.,24.0,0.,24.0
1980-11-13 12:09:32.450 ,0,1,0.,24.0,0.,24.0,0.,24.0,0.,24.0
1980-11-13 12:09:56.450 ,0,0,0.,24.0,0.,24.0,0.,24.0,0.,24.0
1980-11-13 12:10:20.450 ,1,1,0.,24.0,0.,24.0,0.,24.0,0.,24.0
1980-11-13 12:10:44.450 ,1,0,0.,24.0,0.,24.0,0.,24.0,0.,24.0
1980-11-13 12:11:08.450 ,2,1,0.,24.0,0.,24.0,0.,24.0,0.,24.0
1980-11-13 12:11:32.450 ,2,0,0.,24.0,0.,24.0,0.,24.0,0.,24.0
1980-11-13 12:11:56.450 ,3,1,0.,24.0,0.,24.0,0.,24.0,0.,24.0
1980-11-13 12:12:20.450 ,3,0,0.,24.0,0.,24.0,0.,24.0,0.,24.0
1980-11-13 12:12:44.450 ,4,1,0.,24.0,0.,24.0,0.,24.0,0.,24.0
1980-11-13 12:13:08.450 ,4,0,0.,24.0,0.,24.0,0.,24.0,0.,24.0
1980-11-13 12:13:32.450 ,5,1,0.,24.0,0.,24.0,0.,24.0,0.,24.0
1980-11-13 12:13:56.450 ,5,0,0.,24.0,0.,24.0,0.,24.0,0.,24.0
1980-11-13 12:14:20.450 ,6,1,0.,24.0,0.,24.0,0.,24.0,0.,24.0
1980-11-13 12:14:44.450 ,6,0,0.,24.0,0.,24.0,0.,24.0,0.,24.0
1980-11-13 12:15:08.450 ,7,1,0.,24.0,0.,24.0,0.,24.0,0.,24.0
1980-11-13 12:15:32.450 ,7,0,0.,24.0,0.,24.0,0.,24.0,0.,24.0
1980-11-13 12:15:56.450 ,7,1,0.,24.0,0.,24.0,0.,24.0,0.,24.0
1980-11-13 12:16:20.450 ,7,0,0.,24.0,0.,24.0,0.,24.0,0.,24.0
1980-11-13 12:16:44.450 ,6,1,0.,24.0,0.,24.0,0.,24.0,0.,24.0
1980-11-13 12:17:08.450 ,6,0,0.,24.0,0.,24.0,0.,24.0,0.,24.0
1980-11-13 12:17:32.450 ,5,1,0.,24.0,0.,24.0,0.,24.0,0.,24.0
1980-11-13 12:17:56.450 ,5,0,0.,24.0,0.,24.0,0.,24.0,0.,24.0
1980-11-13 12:18:20.450 ,4,1,0.,24.0,0.,24.0,0.,24.0,0.,24.0
1980-11-13 12:18:44.450 ,4,0,0.,24.0,0.,24.0,0.,24.0,0.,24.0
1980-11-13 12:19:08.450 ,3,1,0.,24.0,0.,24.0,0.,24.0,0.,24.0
1980-11-13 12:19:32.450 ,3,0,0.,24.0,0.,24.0,0.,24.0,0.,24.0
1980-11-13 12:19:56.450 ,2,1,0.,24.0,0.,24.0,0.,24.0,0.,24.0
1980-11-13 12:20:20.450 ,2,0,0.,24.0,0.,24.0,0.,24.0,0.,24.0
1980-11-13 12:20:44.450 ,1,1,0.,24.0,0.,24.0,0.,24.0,0.,24.0
1980-11-13 12:21:08.450 ,1,0,0.,24.0,0.,24.0,0.,24.0,0.,24.0
1980-11-13 12:21:32.450 ,0,1,0.,24.0,0.,24.0,0.,24.0,0.,24.0
1980-11-13 12:21:56.450 ,0,0,0.,24.0,0.,24.0,0.,24.0,0.,24.0
1980-11-13 12:22:20.450 ,0,1,0.,24.0,0.,24.0,0.,24.0,0.,24.0
1980-11-13 12:22:44.450 ,0,0,0.,24.0,0.,24.0,0.,24.0,0.,24.0
1980-11-13 12:23:08.450 ,1,1,0.,24.0,0.,24.0,0.,24.0,0.,24.0
1980-11-13 12:23:32.450 ,1,0,0.,24.0,0.,24.0,0.,24.0,0.,24.0
1980-11-13 12:23:56.450 ,2,1,0.,24.0,0.,24.0,0.,24.0,0.,24.0
1980-11-13 12:24:20.450 ,2,0,0.,24.0,0.,24.0,0.,24.0,0.,24.0
1980-11-13 12:24:44.450 ,3,1,0.,24.0,0.,24.0,0.,24.0,0.,24.0
1980-11-13 12:25:08.450 ,3,0,0.,24.0,0.,24.0,0.,24.0,0.,24.0
1980-11-13 12:25:32.450 ,4,1,0.,24.0,0.,24.0,0.,24.0,0.,24.0
1980-11-13 12:25:56.450 ,4,0,0.,24.0,0.,24.0,0.,24.0,0.,24.0
1980-11-13 12:26:20.450 ,5,1,0.,24.0,0.,24.0,0.,24.0,0.,24.0
1980-11-13 12:26:44.450 ,5,0,0.,24.0,0.,24.0,0.,24.0,0.,24.0
1980-11-13 12:27:08.450 ,6,1,0.,24.0,0.,24.0,0.,24.0,0.,24.0
1980-11-13 12:27:32.450 ,6,0,0.,24.0,0.,24.0,0.,24.0,0.,24.0
1980-11-13 12:27:56.450 ,7,1,0.,24.0,0.,24.0,0.,24.0,0.,24.0
1980-11-13 12:28:20.450 ,7,0,0.,24.0,0.,24.0,0.,24.0,0.,24.0
1980-11-13 12:28:44.450 ,7,1,0.,24.0,0.,24.0,0.,24.0,0.,24.0
1980-11-13 12:29:08.450 ,7,0,0.,24.0,0.,24.0,0.,24.0,0.,24.0
1980-11-13 12:29:32.450 ,6,1,0.,24.0,0.,24.0,0.,24.0,0.,24.0
1980-11-13 12:29:56.450 ,6,0,0.,24.0,0.,24.0,0.,24.0,0.,24.0
1980-11-13 12:30:20.450 ,5,1,0.,24.0,0.,24.0,0.,24.0,0.,24.0
1980-11-13 12:30:44.450 ,5,0,0.,24.0,0.,24.0,0.,24.0,0.,24.0
1980-11-13 12:31:08.450 ,4,1,0.,24.0,0.,24.0,0.,24.0,0.,24.0
1980-11-13 12:31:32.450 ,4,0,0.,24.0,0.,24.0,0.,24.0,0.,24.0
1980-11-13 12:31:56.450 ,3,1,0.,24.0,0.,24.0,0.,24.0,0.,24.0
1980-11-13 12:32:20.450 ,3,0,0.,24.0,0.,24.0,0.,24.0,0.,24.0
1980-11-13 12:32:44.450 ,2,1,0.,24.0,0.,24.0,0.,24.0,0.,24.0
1980-11-13 12:33:08.450 ,2,0,0.,24.0,0.,24.0,0.,24.0,0.,24.0
1980-11-13 12:33:32.450 ,1,1,0.,24.0,0.,24.0,0.,24.0,0.,24.0
1980-11-13 12:33:56.450 ,1,0,0.,24.0,0.,24.0,0.,24.0,0.,24.0
1980-11-13 12:34:20.450 ,0,1,0.,24.0,0.,24.0,0.,24.0,0.,24.0
1980-11-13 12:34:44.450 ,0,0,0.,24.0,0.,24.0,0.,24.0,0.,24.0
1980-11-13 12:35:08.450 ,0,1,0.,24.0,0.,24.0,0.,24.0,0.,24.0
1980-11-13 12:35:32.450 ,0,0,0.,24.0,0.,24.0,0.,24.0,0.,24.0
1980-11-13 12:35:56.450 ,1,1,0.,24.0,0.,24.0,0.,24.0,0.,24.0
1980-11-13 12:36:20.450 ,1,0,0.,24.0,0.,24.0,0.,24.0,0.,24.0
1980-11-13 12:36:44.450 ,2,1,0.,24.0,0.,24.0,0.,24.0,0.,24.0
1980-11-13 12:37:08.450 ,2,0,0.,24.0,0.,24.0,0.,24.0,0.,24.0
1980-11-13 12:37:32.450 ,3,1,0.,24.0,0.,24.0,0.,24.0,0.,24.0
1980-11-13 12:37:56.450 ,3,0,0.,24.0,0.,24.0,0.,24.0,0.,24.0
1980-11-13 12:38:20.450 ,4,1,0.,24.0,0.,24.0,0.,24.0,0.,24.0
1980-11-13 12:38:44.450 ,4,0,0.,24.0,0.,24.0,0.,24.0,0.,24.0
1980-11-13 12:39:08.450 ,5,1,0.,24.0,0.,24.0,0.,24.0,0.,24.0
1980-11-13 12:39:32.450 ,5,0,0.,24.0,0.,24.0,0.,24.0,0.,24.0
1980-11-13 12:39:56.450 ,6,1,0.,24.0,0.,24.0,0.,24.0,0.,24.0
1980-11-13 12:40:20.450 ,6,0,0.,24.0,0.,24.0,0.,24.0,0.,24.0
1980-11-13 12:40:44.450 ,7,1,0.,24.0,0.,24.0,0.,24.0,0.,24.0
1980-11-13 12:41:08.450 ,7,0,0.,24.0,0.,24.0,0.,24.0,0.,24.0
1980-11-13 12:41:32.450 ,7,1,0.,24.0,0.,24.0,0.,24.0,0.,24.0
1980-11-13 12:41:56.450 ,0,0,0.,24.0,0.,24.0,0.,24.0,0.,24.0
1980-11-13 12:43:40.250 ,0,0,0.,24.0,0.,24.0,0.,24.0,0.,24.0
1980-11-13 12:43:56.450 ,4,1,0.,24.0,0.,24.0,0.,24.0,0.,24.0
1980-11-13 12:44:20.450 ,4,0,0.,24.0,0.,24.0,0.,24.0,0.,24.0
1980-11-13 12:44:44.450 ,3,1,0.,24.0,0.,24.0,0.,24.0,0.,24.0
1980-11-13 12:45:08.450 ,3,0,0.,24.0,0.,24.0,0.,24.0,0.,24.0
1980-11-13 12:45:32.450 ,2,1,0.,24.0,0.,24.0,0.,24.0,0.,24.0
1980-11-13 12:45:56.450 ,2,0,0.,24.0,0.,24.0,0.,24.0,0.,24.0
1980-11-13 12:46:20.450 ,1,1,0.,24.0,0.,24.0,0.,24.0,0.,24.0
1980-11-13 12:46:44.450 ,1,0,0.,24.0,0.,24.0,0.,24.0,0.,24.0
1980-11-13 12:47:08.450 ,0,1,0.,24.0,0.,24.0,0.,24.0,0.,24.0
1980-11-13 12:47:32.450 ,0,0,0.,24.0,0.,24.0,0.,24.0,0.,24.0
1980-11-13 12:47:56.450 ,0,1,0.,24.0,0.,24.0,0.,24.0,0.,24.0
1980-11-13 12:48:20.450 ,0,0,0.,24.0,0.,24.0,0.,24.0,0.,24.0
1980-11-13 12:48:44.450 ,1,1,0.,24.0,0.,24.0,0.,24.0,0.,24.0
1980-11-13 12:49:08.450 ,1,0,0.,24.0,0.,24.0,0.,24.0,0.,24.0
1980-11-13 12:49:32.450 ,2,1,0.,24.0,0.,24.0,0.,24.0,0.,24.0
1980-11-13 12:49:56.450 ,2,0,0.,24.0,0.,24.0,0.,24.0,0.,24.0
1980-11-13 12:50:20.450 ,3,1,0.,24.0,0.,24.0,0.,24.0,0.,24.0
1980-11-13 12:50:44.450 ,3,0,0.,24.0,0.,24.0,0.,24.0,0.,24.0
1980-11-13 12:51:08.450 ,4,1,0.,24.0,0.,24.0,0.,24.0,0.,24.0
1980-11-13 12:51:32.450 ,4,0,0.,24.0,0.,24.0,0.,24.0,0.,24.0
1980-11-13 12:51:56.450 ,5,1,0.,24.0,0.,24.0,0.,24.0,0.,24.0
1980-11-13 12:52:20.450 ,5,0,0.,24.0,0.,24.0,0.,24.0,0.,24.0
1980-11-13 12:52:44.450 ,6,1,0.,24.0,0.,24.0,0.,24.0,0.,24.0
1980-11-13 12:53:08.450 ,6,0,0.,24.0,0.,24.0,0.,24.0,0.,24.0
1980-11-13 12:53:32.450 ,7,1,0.,24.0,0.,24.0,0.,24.0,0.,24.0
1980-11-13 12:53:56.450 ,7,0,0.,24.0,0.,24.0,0.,24.0,0.,24.0
1980-11-13 12:54:20.450 ,7,1,0.,24.0,0.,24.0,0.,24.0,0.,24.0
1980-11-13 12:54:44.450 ,7,0,0.,24.0,0.,24.0,0.,24.0,0.,24.0
1980-11-13 12:55:08.450 ,6,1,0.,24.0,0.,24.0,0.,24.0,0.,24.0
1980-11-13 12:55:32.450 ,6,0,0.,24.0,0.,24.0,0.,24.0,0.,24.0
1980-11-13 12:55:56.450 ,5,1,0.,24.0,0.,24.0,0.,24.0,0.,24.0
1980-11-13 12:56:20.450 ,5,0,0.,24.0,0.,24.0,0.,24.0,0.,24.0
1980-11-13 12:56:44.450 ,4,1,0.,24.0,0.,24.0,0.,24.0,0.,24.0
1980-11-13 12:57:08.450 ,4,0,0.,24.0,0.,24.0,0.,24.0,0.,24.0
1980-11-13 12:57:32.450 ,3,1,0.,24.0,0.,24.0,0.,24.0,0.,24.0
1980-11-13 12:57:56.450 ,3,0,0.,24.0,0.,24.0,0.,24.0,0.,24.0
1980-11-13 12:58:20.450 ,2,1,0.,24.0,0.,24.0,0.,24.0,0.,24.0
1980-11-13 12:58:44.450 ,2,0,0.,24.0,0.,24.0,0.,24.0,0.,24.0
1980-11-13 12:59:08.450 ,1,1,0.,24.0,0.,24.0,0.,24.0,0.,24.0
1980-11-13 12:59:32.450 ,1,0,0.,24.0,0.,24.0,0.,24.0,0.,24.0
1980-11-13 12:59:56.450 ,0,1,0.,24.0,0.,24.0,0.,24.0,0.,24.0
1980-11-13 13:00:20.450 ,0,0,0.,24.0,0.,24.0,0.,24.0,0.,24.0
1980-11-13 13:00:44.450 ,0,1,0.,24.0,0.,24.0,0.,24.0,0.,24.0
1980-11-13 13:01:08.450 ,0,0,0.,24.0,0.,24.0,0.,24.0,0.,24.0
1980-11-13 13:01:32.450 ,1,1,0.,24.0,0.,24.0,0.,24.0,0.,24.0
1980-11-13 13:01:56.450 ,1,0,0.,24.0,0.,24.0,0.,24.0,0.,24.0
1980-11-13 13:02:20.450 ,2,1,0.,24.0,0.,24.0,0.,24.0,0.,24.0
1980-11-13 13:02:44.450 ,2,0,0.,24.0,0.,24.0,0.,24.0,0.,24.0
1980-11-13 13:03:08.450 ,3,1,0.,24.0,0.,24.0,0.,24.0,0.,24.0
1980-11-13 13:03:32.450 ,3,0,0.,24.0,0.,24.0,0.,24.0,0.,24.0
1980-11-13 13:03:56.450 ,4,1,0.,24.0,0.,24.0,0.,24.0,0.,24.0
1980-11-13 13:04:20.450 ,4,0,0.,24.0,0.,24.0,0.,24.0,0.,24.0
1980-11-13 13:04:44.450 ,5,1,0.,24.0,0.,24.0,0.,24.0,0.,24.0
1980-11-13 13:05:08.450 ,5,0,0.,24.0,0.,24.0,0.,24.0,0.,24.0
1980-11-13 13:05:32.450 ,6,1,0.,24.0,0.,24.0,0.,24.0,0.,24.0
1980-11-13 13:05:56.450 ,6,0,0.,24.0,0.,24.0,0.,24.0,0.,24.0
1980-11-13 13:06:20.450 ,7,1,0.,24.0,0.,24.0,0.,24.0,0.,24.0
1980-11-13 13:06:44.450 ,7,0,0.,24.0,0.,24.0,0.,24.0,0.,24.0
1980-11-13 13:07:08.450 ,7,1,0.,24.0,0.,24.0,0.,24.0,0.,24.0
1980-11-13 13:07:32.450 ,7,0,0.,24.0,0.,24.0,0.,24.0,0.,24.0
1980-11-13 13:07:56.450 ,6,1,0.,24.0,0.,24.0,0.,24.0,0.,24.0
1980-11-13 13:08:20.450 ,6,0,0.,24.0,0.,24.0,0.,24.0,0.,24.0
1980-11-13 13:08:44.450 ,5,1,0.,24.0,0.,24.0,0.,24.0,0.,24.0
1980-11-13 13:09:08.450 ,5,0,0.,24.0,0.,24.0,0.,24.0,0.,24.0
1980-11-13 13:09:32.450 ,4,1,0.,24.0,0.,24.0,0.,24.0,0.,24.0
1980-11-13 13:09:56.450 ,4,0,0.,24.0,0.,24.0,0.,24.0,0.,24.0
1980-11-13 13:10:20.450 ,3,1,0.,24.0,0.,24.0,0.,24.0,0.,24.0
1980-11-13 13:10:44.450 ,3,0,0.,24.0,0.,24.0,0.,24.0,0.,24.0
1980-11-13 13:11:08.450 ,2,1,0.,24.0,0.,24.0,0.,24.0,0.,24.0
1980-11-13 13:11:32.450 ,2,0,0.,24.0,0.,24.0,0.,24.0,0.,24.0
1980-11-13 13:11:56.450 ,1,1,0.,24.0,0.,24.0,0.,24.0,0.,24.0
1980-11-13 13:12:20.450 ,1,0,0.,24.0,0.,24.0,0.,24.0,0.,24.0
1980-11-13 13:12:44.450 ,0,1,0.,24.0,0.,24.0,0.,24.0,0.,24.0
1980-11-13 13:13:08.450 ,0,0,0.,24.0,0.,24.0,0.,24.0,0.,24.0
1980-11-13 13:13:32.450 ,0,1,0.,24.0,0.,24.0,0.,24.0,0.,24.0
1980-11-13 13:13:56.450 ,0,0,0.,24.0,0.,24.0,0.,24.0,0.,24.0
1980-11-13 13:14:20.450 ,1,1,0.,24.0,0.,24.0,0.,24.0,0.,24.0
1980-11-13 13:14:44.450 ,1,0,0.,24.0,0.,24.0,0.,24.0,0.,24.0
1980-11-13 13:15:08.450 ,2,1,0.,24.0,0.,24.0,0.,24.0,0.,24.0
1980-11-13 13:15:32.450 ,2,0,0.,24.0,0.,24.0,0.,24.0,0.,24.0
1980-11-13 13:15:56.450 ,3,1,0.,24.0,0.,24.0,0.,24.0,0.,24.0
1980-11-13 13:16:20.450 ,3,0,0.,24.0,0.,24.0,0.,24.0,0.,24.0
1980-11-13 13:16:44.450 ,4,1,0.,24.0,0.,24.0,0.,24.0,0.,24.0
1980-11-13 13:17:08.450 ,4,0,0.,24.0,0.,24.0,0.,24.0,0.,24.0
1980-11-13 13:17:32.450 ,5,1,0.,24.0,0.,24.0,0.,24.0,0.,24.0
1980-11-13 13:17:56.450 ,5,0,0.,24.0,0.,24.0,0.,24.0,0.,24.0
1980-11-13 13:18:20.450 ,6,1,0.,24.0,0.,24.0,0.,24.0,0.,24.0
1980-11-13 13:18:44.450 ,6,0,0.,24.0,0.,24.0,0.,24.0,0.,24.0
1980-11-13 13:19:08.450 ,7,1,0.,24.0,0.,24.0,0.,24.0,0.,24.0
1980-11-13 13:19:32.450 ,7,0,0.,24.0,0.,24.0,0.,24.0,0.,24.0
1980-11-13 13:19:56.450 ,7,1,0.,24.0,0.,24.0,0.,24.0,0.,24.0
1980-11-13 13:20:20.450 ,7,0,0.,24.0,0.,24.0,0.,24.0,0.,24.0
1980-11-13 13:20:44.450 ,6,1,0.,24.0,0.,24.0,0.,24.0,0.,24.0
1980-11-13 13:21:08.450 ,6,0,0.,24.0,0.,24.0,0.,24.0,0.,24.0
1980-11-13 13:21:32.450 ,5,1,0.,24.0,0.,24.0,0.,24.0,0.,24.0
1980-11-13 13:21:56.450 ,5,0,0.,24.0,0.,24.0,0.,24.0,0.,24.0
1980-11-13 13:22:20.450 ,4,1,0.,24.0,0.,24.0,0.,24.0,0.,24.0
1980-11-13 13:22:44.450 ,4,0,0.,24.0,0.,24.0,0.,24.0,0.,24.0
1980-11-13 13:23:08.450 ,3,1,0.,24.0,0.,24.0,0.,24.0,0.,24.0
1980-11-13 13:23:32.450 ,3,0,0.,24.0,0.,24.0,0.,24.0,0.,24.0
1980-11-13 13:23:56.450 ,2,1,0.,24.0,0.,24.0,0.,24.0,0.,24.0
1980-11-13 13:24:20.450 ,2,0,0.,24.0,0.,24.0,0.,24.0,0.,24.0
1980-11-13 13:24:44.450 ,1,1,0.,24.0,0.,24.0,0.,24.0,0.,24.0
1980-11-13 13:25:08.450 ,1,0,0.,24.0,0.,24.0,0.,24.0,0.,24.0
1980-11-13 13:25:32.450 ,0,1,0.,24.0,0.,24.0,0.,24.0,0.,24.0
1980-11-13 13:25:56.450 ,0,0,0.,24.0,0.,24.0,0.,24.0,0.,24.0
1980-11-13 13:26:20.450 ,0,1,0.,24.0,0.,24.0,0.,24.0,0.,24.0
1980-11-13 13:26:44.450 ,0,0,0.,24.0,0.,24.0,0.,24.0,0.,24.0
1980-11-13 13:27:08.450 ,1,1,0.,24.0,0.,24.0,0.,24.0,0.,24.0
1980-11-13 13:27:32.450 ,1,0,0.,24.0,0.,24.0,0.,24.0,0.,24.0
1980-11-13 13:27:56.450 ,2,1,0.,24.0,0.,24.0,0.,24.0,0.,24.0
1980-11-13 13:28:20.450 ,2,0,0.,24.0,0.,24.0,0.,24.0,0.,24.0
1980-11-13 13:28:44.450 ,3,1,0.,24.0,0.,24.0,0.,24.0,0.,24.0
1980-11-13 13:29:08.450 ,3,0,0.,24.0,0.,24.0,0.,24.0,0.,24.0
1980-11-13 13:29:32.450 ,4,1,0.,24.0,0.,24.0,0.,24.0,0.,24.0
1980-11-13 13:29:56.450 ,4,0,0.,24.0,0.,24.0,0.,24.0,0.,24.0
1980-11-13 13:30:20.450 ,5,1,0.,24.0,0.,24.0,0.,24.0,0.,24.0
1980-11-13 13:30:44.450 ,5,0,0.,24.0,0.,24.0,0.,24.0,0.,24.0
1980-11-13 13:31:08.450 ,6,1,0.,24.0,0.,24.0,0.,24.0,0.,24.0
1980-11-13 13:31:32.450 ,6,0,0.,24.0,0.,24.0,0.,24.0,0.,24.0
1980-11-13 13:31:56.450 ,7,1,0.,24.0,0.,24.0,0.,24.0,0.,24.0
1980-11-13 13:32:20.450 ,7,0,0.,24.0,0.,24.0,0.,24.0,0.,24.0
1980-11-13 13:32:44.450 ,7,1,0.,24.0,0.,24.0,0.,24.0,0.,24.0
1980-11-13 13:33:08.450 ,7,0,0.,24.0,0.,24.0,0.,24.0,0.,24.0
1980-11-13 13:33:32.450 ,6,1,0.,24.0,0.,24.0,0.,24.0,0.,24.0
1980-11-13 13:33:56.450 ,6,0,0.,24.0,0.,24.0,0.,24.0,0.,24.0
1980-11-13 13:34:20.450 ,5,1,0.,24.0,0.,24.0,0.,24.0,0.,24.0
1980-11-13 13:34:44.450 ,5,0,0.,24.0,0.,24.0,0.,24.0,0.,24.0
1980-11-13 13:35:08.450 ,4,1,0.,24.0,0.,24.0,0.,24.0,0.,24.0
1980-11-13 13:35:32.450 ,4,0,0.,24.0,0.,24.0,0.,24.0,0.,24.0
1980-11-13 13:35:56.450 ,3,1,0.,24.0,0.,24.0,0.,24.0,0.,24.0
1980-11-13 13:36:20.450 ,3,0,0.,24.0,0.,24.0,0.,24.0,0.,24.0
1980-11-13 13:36:44.450 ,2,1,0.,24.0,0.,24.0,0.,24.0,0.,24.0
1980-11-13 13:37:08.450 ,2,0,0.,24.0,0.,24.0,0.,24.0,0.,24.0
1980-11-13 13:37:32.450 ,1,1,0.,24.0,0.,24.0,0.,24.0,0.,24.0
1980-11-13 13:37:56.450 ,1,0,0.,24.0,0.,24.0,0.,24.0,0.,24.0
1980-11-13 13:38:20.450 ,0,1,0.,24.0,0.,24.0,0.,24.0,0.,24.0
1980-11-13 13:38:44.450 ,0,0,0.,24.0,0.,24.0,0.,24.0,0.,24.0
1980-11-13 13:39:08.450 ,0,1,0.,24.0,0.,24.0,0.,24.0,0.,24.0
1980-11-13 13:39:32.450 ,0,0,0.,24.0,0.,24.0,0.,24.0,0.,24.0
1980-11-13 13:39:56.450 ,1,1,0.,24.0,0.,24.0,0.,24.0,0.,24.0
1980-11-13 13:40:20.450 ,1,0,0.,24.0,0.,24.0,0.,24.0,0.,24.0
1980-11-13 13:40:44.450 ,2,1,0.,24.0,0.,24.0,0.,24.0,0.,24.0
1980-11-13 13:41:08.450 ,2,0,0.,24.0,0.,24.0,0.,24.0,0.,24.0
1980-11-13 13:41:32.450 ,3,1,0.,24.0,0.,24.0,0.,24.0,0.,24.0
1980-11-13 13:41:56.450 ,3,0,0.,24.0,0.,24.0,0.,24.0,0.,24.0
1980-11-13 13:42:20.450 ,4,1,0.,24.0,0.,24.0,0.,24.0,0.,24.0
1980-11-13 13:42:44.450 ,4,0,0.,24.0,0.,24.0,0.,24.0,0.,24.0
1980-11-13 13:43:08.450 ,5,1,0.,24.0,0.,24.0,0.,24.0,0.,24.0
1980-11-13 13:43:32.450 ,5,0,0.,24.0,0.,24.0,0.,24.0,0.,24.0
1980-11-13 13:43:56.450 ,6,1,0.,24.0,0.,24.0,0.,24.0,0.,24.0
1980-11-13 13:44:20.450 ,6,0,0.,24.0,0.,24.0,0.,24.0,0.,24.0
1980-11-13 13:44:44.450 ,7,1,0.,24.0,0.,24.0,0.,24.0,0.,24.0
1980-11-13 13:45:08.450 ,7,0,0.,24.0,0.,24.0,0.,24.0,0.,24.0
1980-11-13 13:45:32.450 ,7,1,0.,24.0,0.,24.0,0.,24.0,0.,24.0
1980-11-13 13:45:56.450 ,7,0,0.,24.0,0.,24.0,0.,24.0,0.,24.0
1980-11-13 13:46:20.450 ,6,1,0.,24.0,0.,24.0,0.,24.0,0.,24.0
1980-11-13 13:46:44.450 ,6,0,0.,24.0,0.,24.0,0.,24.0,0.,24.0
1980-11-13 13:47:08.450 ,5,1,0.,24.0,0.,24.0,0.,24.0,0.,24.0
1980-11-13 13:47:32.450 ,5,0,0.,24.0,0.,24.0,0.,24.0,0.,24.0
1980-11-13 13:47:56.450 ,4,1,0.,24.0,0.,24.0,0.,24.0,0.,24.0
1980-11-13 13:48:20.450 ,4,0,0.,24.0,0.,24.0,0.,24.0,0.,24.0
1980-11-13 13:48:44.450 ,3,1,0.,24.0,0.,24.0,0.,24.0,0.,24.0
1980-11-13 13:49:08.450 ,3,0,0.,24.0,0.,24.0,0.,24.0,0.,24.0
1980-11-13 13:49:32.450 ,2,1,0.,24.0,0.,24.0,0.,24.0,0.,24.0
1980-11-13 13:49:56.450 ,2,0,0.,24.0,0.,24.0,0.,24.0,0.,24.0
1980-11-13 13:50:20.450 ,1,1,0.,24.0,0.,24.0,0.,24.0,0.,24.0
1980-11-13 13:50:44.450 ,1,0,0.,24.0,0.,24.0,0.,24.0,0.,24.0
1980-11-13 13:51:08.450 ,0,1,0.,24.0,0.,24.0,0.,24.0,0.,24.0
1980-11-13 13:51:32.450 ,0,0,0.,24.0,0.,24.0,0.,24.0,0.,24.0
1980-11-13 13:51:56.450 ,0,1,0.,24.0,0.,24.0,0.,24.0,0.,24.0
1980-11-13 13:52:20.450 ,0,0,0.,24.0,0.,24.0,0.,24.0,0.,24.0
1980-11-13 13:52:44.450 ,1,1,0.,24.0,0.,24.0,0.,24.0,0.,24.0
1980-11-13 13:53:08.450 ,1,0,0.,24.0,0.,24.0,0.,24.0,0.,24.0
1980-11-13 13:53:32.450 ,2,1,0.,24.0,0.,24.0,0.,24.0,0.,24.0
1980-11-13 13:53:56.450 ,2,0,0.,24.0,0.,24.0,0.,24.0,0.,24.0
1980-11-13 13:54:20.450 ,3,1,0.,24.0,0.,24.0,0.,24.0,0.,24.0
1980-11-13 13:54:44.450 ,3,0,0.,24.0,0.,24.0,0.,24.0,0.,24.0
1980-11-13 13:55:08.450 ,4,1,0.,24.0,0.,24.0,0.,24.0,0.,24.0
1980-11-13 13:55:32.450 ,4,0,0.,24.0,0.,24.0,0.,24.0,0.,24.0
1980-11-13 13:55:56.450 ,5,1,0.,24.0,0.,24.0,0.,24.0,0.,24.0
1980-11-13 13:56:20.450 ,5,0,0.,24.0,0.,24.0,0.,24.0,0.,24.0
1980-11-13 13:56:44.450 ,6,1,0.,24.0,0.,24.0,0.,24.0,0.,24.0
1980-11-13 13:57:08.450 ,6,0,0.,24.0,0.,24.0,0.,24.0,0.,24.0
1980-11-13 13:57:32.450 ,7,1,0.,24.0,0.,24.0,0.,24.0,0.,24.0
1980-11-13 13:57:56.450 ,7,0,0.,24.0,0.,24.0,0.,24.0,0.,24.0
1980-11-13 13:58:20.450 ,7,1,0.,24.0,0.,24.0,0.,24.0,0.,24.0
1980-11-13 13:58:44.450 ,7,0,0.,24.0,0.,24.0,0.,24.0,0.,24.0
1980-11-13 13:59:08.450 ,6,1,0.,24.0,0.,24.0,0.,24.0,0.,24.0
1980-11-13 13:59:32.450 ,6,0,0.,24.0,0.,24.0,0.,24.0,0.,24.0
1980-11-13 13:59:56.450 ,5,1,0.,24.0,0.,24.0,0.,24.0,0.,24.0
1980-11-13 14:00:20.450 ,5,0,0.,24.0,0.,24.0,0.,24.0,0.,24.0
1980-11-13 14:00:44.450 ,4,1,0.,24.0,0.,24.0,0.,24.0,0.,24.0
1980-11-13 14:01:08.450 ,4,0,0.,24.0,0.,24.0,0.,24.0,0.,24.0
1980-11-13 14:01:32.450 ,3,1,0.,24.0,0.,24.0,0.,24.0,0.,24.0
1980-11-13 14:01:56.450 ,3,0,0.,24.0,0.,24.0,0.,24.0,0.,24.0
1980-11-13 14:02:20.450 ,2,1,0.,24.0,0.,24.0,0.,24.0,0.,24.0
1980-11-13 14:02:44.450 ,2,0,0.,24.0,0.,24.0,0.,24.0,0.,24.0
1980-11-13 14:03:08.450 ,1,1,0.,24.0,0.,24.0,0.,24.0,0.,24.0
1980-11-13 14:03:32.450 ,1,0,0.,24.0,0.,24.0,0.,24.0,0.,24.0
1980-11-13 14:03:56.450 ,0,1,0.,24.0,0.,24.0,0.,24.0,0.,24.0
1980-11-13 14:04:20.450 ,0,0,0.,24.0,0.,24.0,0.,24.0,0.,24.0
1980-11-13 14:04:44.450 ,0,1,0.,24.0,0.,24.0,0.,24.0,0.,24.0
1980-11-13 14:05:08.450 ,0,0,0.,24.0,0.,24.0,0.,24.0,0.,24.0
1980-11-13 14:05:32.450 ,1,1,0.,24.0,0.,24.0,0.,24.0,0.,24.0
1980-11-13 14:05:56.450 ,1,0,0.,24.0,0.,24.0,0.,24.0,0.,24.0
1980-11-13 14:06:20.450 ,2,1,0.,24.0,0.,24.0,0.,24.0,0.,24.0
1980-11-13 14:06:44.450 ,2,0,0.,24.0,0.,24.0,0.,24.0,0.,24.0
1980-11-13 14:07:08.450 ,3,1,0.,24.0,0.,24.0,0.,24.0,0.,24.0
1980-11-13 14:07:32.450 ,3,0,0.,24.0,0.,24.0,0.,24.0,0.,24.0
1980-11-13 14:07:56.450 ,4,1,0.,24.0,0.,24.0,0.,24.0,0.,24.0
1980-11-13 14:08:20.450 ,0,0,0.,24.0,0.,24.0,0.,24.0,0.,24.0
1980-11-13 14:08:48.050 ,0,0,0.,24.0,0.,24.0,0.,24.0,0.,24.0
1980-11-13 14:09:08.450 ,0,0,0.,24.0,0.,24.0,0.,24.0,0.,24.0
1980-11-13 14:09:32.450 ,6,1,0.,24.0,0.,24.0,0.,24.0,0.,24.0
1980-11-13 14:09:56.450 ,6,0,0.,24.0,0.,24.0,0.,24.0,0.,24.0
1980-11-13 14:10:20.450 ,7,1,0.,24.0,0.,24.0,0.,24.0,0.,24.0
1980-11-13 14:10:44.450 ,7,0,0.,24.0,0.,24.0,0.,24.0,0.,24.0
1980-11-13 14:11:08.450 ,7,1,0.,24.0,0.,24.0,0.,24.0,0.,24.0
1980-11-13 14:11:32.450 ,7,0,0.,24.0,0.,24.0,0.,24.0,0.,24.0
1980-11-13 14:11:56.450 ,6,1,0.,24.0,0.,24.0,0.,24.0,0.,24.0
1980-11-13 14:12:20.450 ,6,0,0.,24.0,0.,24.0,0.,24.0,0.,24.0
1980-11-13 14:12:44.450 ,5,1,0.,24.0,0.,24.0,0.,24.0,0.,24.0
1980-11-13 14:13:08.450 ,5,0,0.,24.0,0.,24.0,0.,24.0,0.,24.0
1980-11-13 14:13:32.450 ,4,1,0.,24.0,0.,24.0,0.,24.0,0.,24.0
1980-11-13 14:13:56.450 ,4,0,0.,24.0,0.,24.0,0.,24.0,0.,24.0
1980-11-13 14:14:20.450 ,3,1,0.,24.0,0.,24.0,0.,24.0,0.,24.0
1980-11-13 14:14:44.450 ,3,0,0.,24.0,0.,24.0,0.,24.0,0.,24.0
1980-11-13 14:15:08.450 ,2,1,0.,24.0,0.,24.0,0.,24.0,0.,24.0
1980-11-13 14:15:32.450 ,2,0,0.,24.0,0.,24.0,0.,24.0,0.,24.0
1980-11-13 14:15:56.450 ,1,1,0.,24.0,0.,24.0,0.,24.0,0.,24.0
1980-11-13 14:16:20.450 ,1,0,0.,24.0,0.,24.0,0.,24.0,0.,24.0
1980-11-13 14:16:44.450 ,0,1,0.,24.0,0.,24.0,0.,24.0,0.,24.0
1980-11-13 14:17:08.450 ,0,0,0.,24.0,0.,24.0,0.,24.0,0.,24.0
1980-11-13 14:17:32.450 ,0,1,0.,24.0,0.,24.0,0.,24.0,0.,24.0
1980-11-13 14:17:56.450 ,0,0,0.,24.0,0.,24.0,0.,24.0,0.,24.0
1980-11-13 14:18:20.450 ,1,1,0.,24.0,0.,24.0,0.,24.0,0.,24.0
1980-11-13 14:18:44.450 ,1,0,0.,24.0,0.,24.0,0.,24.0,0.,24.0
1980-11-13 14:19:08.450 ,2,1,0.,24.0,0.,24.0,0.,24.0,0.,24.0
1980-11-13 14:19:32.450 ,2,0,0.,24.0,0.,24.0,0.,24.0,0.,24.0
1980-11-13 14:19:56.450 ,3,1,0.,24.0,0.,24.0,0.,24.0,0.,24.0
1980-11-13 14:20:20.450 ,3,0,0.,24.0,0.,24.0,0.,24.0,0.,24.0
1980-11-13 14:20:44.450 ,4,1,0.,24.0,0.,24.0,0.,24.0,0.,24.0
1980-11-13 14:21:08.450 ,4,0,0.,24.0,0.,24.0,0.,24.0,0.,24.0
1980-11-13 14:21:32.450 ,5,1,0.,24.0,0.,24.0,0.,24.0,0.,24.0
1980-11-13 14:21:56.450 ,5,0,0.,24.0,0.,24.0,0.,24.0,0.,24.0
1980-11-13 14:22:20.450 ,6,1,0.,24.0,0.,24.0,0.,24.0,0.,24.0
1980-11-13 14:22:44.450 ,6,0,0.,24.0,0.,24.0,0.,24.0,0.,24.0
1980-11-13 14:23:08.450 ,7,1,0.,24.0,0.,24.0,0.,24.0,0.,24.0
1980-11-13 14:23:32.450 ,7,0,0.,24.0,0.,24.0,0.,24.0,0.,24.0
1980-11-13 14:23:56.450 ,7,1,0.,24.0,0.,24.0,0.,24.0,0.,24.0
1980-11-13 14:24:20.450 ,7,0,0.,24.0,0.,24.0,0.,24.0,0.,24.0
1980-11-13 14:24:44.450 ,6,1,0.,24.0,0.,24.0,0.,24.0,0.,24.0
1980-11-13 14:25:08.450 ,6,0,0.,24.0,0.,24.0,0.,24.0,0.,24.0
1980-11-13 14:25:32.450 ,5,1,0.,24.0,0.,24.0,0.,24.0,0.,24.0
1980-11-13 14:25:56.450 ,5,0,0.,24.0,0.,24.0,0.,24.0,0.,24.0
1980-11-13 14:26:20.450 ,4,1,0.,24.0,0.,24.0,0.,24.0,0.,24.0
1980-11-13 14:26:44.450 ,4,0,0.,24.0,0.,24.0,0.,24.0,0.,24.0
1980-11-13 14:27:08.450 ,3,1,0.,24.0,0.,24.0,0.,24.0,0.,24.0
1980-11-13 14:27:32.450 ,3,0,0.,24.0,0.,24.0,0.,24.0,0.,24.0
1980-11-13 14:27:56.450 ,2,1,0.,24.0,0.,24.0,0.,24.0,0.,24.0
1980-11-13 14:28:20.450 ,2,0,0.,24.0,0.,24.0,0.,24.0,0.,24.0
1980-11-13 14:28:44.450 ,1,1,0.,24.0,0.,24.0,0.,24.0,0.,24.0
1980-11-13 14:29:08.450 ,1,0,0.,24.0,0.,24.0,0.,24.0,0.,24.0
1980-11-13 14:29:32.450 ,0,1,0.,24.0,0.,24.0,0.,24.0,0.,24.0
1980-11-13 14:29:56.450 ,0,0,0.,24.0,0.,24.0,0.,24.0,0.,24.0
1980-11-13 14:30:20.450 ,0,1,0.,24.0,0.,24.0,0.,24.0,0.,24.0
1980-11-13 14:30:44.450 ,0,0,0.,24.0,0.,24.0,0.,24.0,0.,24.0
1980-11-13 14:31:08.450 ,1,1,0.,24.0,0.,24.0,0.,24.0,0.,24.0
1980-11-13 14:31:32.450 ,1,0,0.,24.0,0.,24.0,0.,24.0,0.,24.0
1980-11-13 14:31:56.450 ,2,1,0.,24.0,0.,24.0,0.,24.0,0.,24.0
1980-11-13 14:32:20.450 ,2,0,0.,24.0,0.,24.0,0.,24.0,0.,24.0
1980-11-13 14:32:44.450 ,3,1,0.,24.0,0.,24.0,0.,24.0,0.,24.0
1980-11-13 14:33:08.450 ,3,0,0.,24.0,0.,24.0,0.,24.0,0.,24.0
1980-11-13 14:33:32.450 ,4,1,0.,24.0,0.,24.0,0.,24.0,0.,24.0
1980-11-13 14:33:56.450 ,4,0,0.,24.0,0.,24.0,0.,24.0,0.,24.0
1980-11-13 14:34:20.450 ,5,1,0.,24.0,0.,24.0,0.,24.0,0.,24.0
1980-11-13 14:34:44.450 ,5,0,0.,24.0,0.,24.0,0.,24.0,0.,24.0
1980-11-13 14:35:08.450 ,6,1,0.,24.0,0.,24.0,0.,24.0,0.,24.0
1980-11-13 14:35:32.450 ,6,0,0.,24.0,0.,24.0,0.,24.0,0.,24.0